Terminal Aerodrome Forecast
Issued by NWS

Home | Current Version | Previous Version | Text Only | Print | Product List | Glossary On
Versions: 1 2 3 4 5 6 7 8 9 10 11 12 13 14 15
000
FTUS44 KLUB 230500
TAFCDS
TAF
KCDS 230520Z 2306/2406 19011KT P6SM FEW250
     FM231400 20016KT P6SM SCT250
     FM240200 17011KT P6SM FEW100 SCT250=

USA.gov is the U.S. government's official web portal to all federal, state and local government web resources and services.